User: anonymous   Login
Location: Rio Negrinho
(26.2394°S, 49.4999°W)
Time: 15:37:17
(UTC+00:00)
Language:

Cosmos 2016 Rocket - Orbit

View from above orbital plane
View from above orbital plane
View from above satellite
View from above satellite

Ground track
Ground track

The orbit data is extracted from the following two-line orbital elements,

1 19922U 89028B   20224.91452562 +.00000052 +00000-0 +37049-4 0  9998
2 19922 082.9588 292.3793 0035135 259.0291 100.6913 13.77219906575502
Epoch (UTC): 11 August 2020 21:56:55
Eccentricity: 0.0035135
inclination: 82.9588°
perigee height: 948 km
apogee height: 999 km
right ascension of ascending node: 292.3793°
argument of perigee: 259.0291°
revolutions per day: 13.77219906
mean anomaly at epoch: 100.6913°
orbit number at epoch: 57550

The dashed part of the orbit path shows where the satellite is in the earth's shadow,  

DLR